Flag for Canada Weather past 2 weeks in Fort Smith, Northwest Territories, Canada

Now
70 °F

Partly sunny.


Feels Like: 70 °F
Forecast: 45 / 65 °F
Wind: 6 mph from West

Location: Fort Smith

Current Time: Sep 21, 2014 at 2:50:59 PM

Latest Report: Sep 21, 2014 at 2:00 PM


Visibility: 15 mi

Pressure: 29.72 "Hg

Humidity: 53%

Dew point: 52 °F

Location of Fort SmithLocation

Historic Weather in Fort Smith — Graph

°F

Fort Smith temperature yesterday

Maximum temperature yesterday: 55 °F (at 5:00 PM)
Minimum temperature yesterday: 46 °F (at 11:00 PM)
Average temperature yesterday: 50 °F

Past Weeks' High & Low Weather Summary

 TemperatureHumidityPressure
High66 °F (Sep 21, 1:00 PM)100% (Sep 14, 7:00 AM)30.61 "Hg (Sep 14, 7:00 AM)
Low30 °F (Sep 10, 7:00 AM)28% (Sep 10, 5:00 PM)29.42 "Hg (Sep 19, 4:00 PM)
Average44 °F74%30.00 "Hg
* Reported Sep 6 1:00 PM — Sep 21 1:00 PM, Fort Smith, Weather by CustomWeather, © 2014

Note: Actual official high and low records may vary slightly from our data, if they occured in-between our weather recording intervals... More about our weather records

Advertising

Fort Smith weather history for previous 24 hours

 ConditionsComfort  
Time TempWeatherWind HumidityBarometerVisibility
1:00 PM
Sep 21
66 °FPartly sunny.7 mph60%29.73 "Hg15 mi
12:00 PM63 °FPartly sunny.6 mph64%29.73 "Hg15 mi
11:00 AM59 °FPartly sunny.3 mph68%29.73 "Hg15 mi
10:00 AM54 °FPartly sunny.3 mph77%29.73 "Hg15 mi
9:00 AM46 °FPartly sunny.3 mph87%29.73 "Hg15 mi
8:00 AM43 °FPassing clouds.5 mph87%29.74 "Hg15 mi
7:00 AM43 °FPassing clouds.5 mph87%29.74 "Hg15 mi
6:00 AM41 °FPassing clouds.5 mph93%29.75 "Hg15 mi
5:00 AM41 °FPassing clouds.5 mph93%29.76 "Hg15 mi
4:00 AM41 °FPassing clouds.5 mph100%29.76 "Hg15 mi
3:00 AM43 °FPassing clouds.3 mph93%29.78 "Hg15 mi
2:00 AM45 °FPassing clouds.5 mph93%29.79 "Hg15 mi
1:00 AM45 °FPassing clouds.5 mph93%29.81 "Hg15 mi
12:00 AM46 °FPassing clouds.6 mph93%29.82 "Hg15 mi
11:00 PM
Sep 20
46 °FPassing clouds.8 mph93%29.84 "Hg15 mi
10:00 PM48 °FPassing clouds.8 mph94%29.85 "Hg15 mi
9:00 PM48 °FPassing clouds.7 mph87%29.86 "Hg15 mi
8:00 PM50 °FScattered clouds.5 mph88%29.87 "Hg15 mi
7:00 PM54 °FPartly sunny.3 mph77%29.89 "Hg15 mi
6:00 PM55 °FScattered clouds.5 mph67%29.89 "Hg15 mi
5:00 PM55 °FBroken clouds.2 mph72%29.89 "Hg15 mi
4:00 PM54 °FPartly sunny.5 mph77%29.90 "Hg15 mi
3:00 PM54 °FMostly cloudy.6 mph77%29.89 "Hg15 mi
2:00 PM54 °FLow clouds.8 mph82%29.88 "Hg15 mi
Weather by CustomWeather, © 2014

See weather overviewHow to use our weather pages